Change the Weather History Date:

Tuesday, September 25, 2012

  Actual Average Record
Temperature  
Mean Temperature 63 °F 69 °F  
Max Temperature 77 °F 79 °F 98 °F (2010)
Min Temperature 48 °F 58 °F 39 °F (1950)
Degree Days  
Heating Degree Days 2 1  
Month to date heating degree days 9 9  
Since 1 July heating degree days 9 10  
Cooling Degree Days 0 5  
Month to date cooling degree days 180 205  
Year to date cooling degree days 1802 1646  
Growing Degree Days 12 (Base 50)    
Moisture  
Dew Point 51 °F    
Average Humidity 66    
Maximum Humidity 89    
Minimum Humidity 43    
Precipitation  
Precipitation 0.00 in 0.12 in 1.08 in (1989)
Month to date precipitation 6.78 3.72  
Year to date precipitation 34.41 33.26  
Sea Level Pressure  
Sea Level Pressure 30.21 in    
Wind  
Wind Speed 3 mph (WSW)    
Max Wind Speed 12 mph    
Max Gust Speed 15 mph    
Visibility 10 miles    
Events      
T = Trace of Precipitation, MM = Missing Value Source: NWS Daily Summary

Daily Weather History Graph

Daily Weather History Graph

Search for Another Location

Airport or City:

Trip Planner

Search our weather history database for the weather conditions in past years. The results will help you decide how hot, cold, wet, or windy it might be!

Date:

Astronomy

Sep. 25, 2012 Rise Set
Actual Time 7:05 AM EDT 7:06 PM EDT
Civil Twilight 6:40 AM EDT 7:32 PM EDT
Nautical Twilight 6:10 AM EDT 8:02 PM EDT
Astronomical Twilight 5:40 AM EDT 8:32 PM EDT
Moon 4:23 PM EDT (9/25) 2:33 AM EDT (9/25)
Length of Visible Light 12h 52m
Length of Day
12h 01m
Waxing Gibbous, 80% of the Moon is Illuminated
Sep 25
Waxing Gibbous
Sep 29
Full
Oct 8
Last Quarter
Oct 15
New
Oct 21
First Quarter

Hourly Weather History & Observations

Time (EDT) Temp. Dew Point Humidity Pressure Visibility Wind Dir Wind Speed Gust Speed Precip Events Conditions
12:51 AM 53.1 °F 48.0 °F 83% 30.21 in 10.0 mi Calm Calm - N/A   Clear
1:51 AM 51.1 °F 48.0 °F 89% 30.20 in 10.0 mi Calm Calm - N/A   Clear
2:51 AM 51.1 °F 48.0 °F 89% 30.20 in 10.0 mi Calm Calm - N/A   Clear
3:51 AM 50.0 °F 46.4 °F 87% 30.21 in 9.0 mi Calm Calm - N/A   Clear
4:51 AM 50.0 °F 46.9 °F 89% 30.20 in 10.0 mi Calm Calm - N/A   Clear
5:51 AM 50.0 °F 46.0 °F 86% 30.21 in 10.0 mi Calm Calm - N/A   Clear
6:51 AM 52.0 °F 46.9 °F 83% 30.23 in 10.0 mi Calm Calm - N/A   Clear
7:51 AM 53.1 °F 48.0 °F 83% 30.24 in 10.0 mi Calm Calm - N/A   Clear
8:51 AM 59.0 °F 51.1 °F 75% 30.25 in 10.0 mi Calm Calm - N/A   Partly Cloudy
9:51 AM 64.0 °F 54.0 °F 70% 30.25 in 10.0 mi SW 3.5 mph - N/A   Partly Cloudy
10:51 AM 69.1 °F 55.0 °F 61% 30.26 in 10.0 mi Variable 3.5 mph - N/A   Partly Cloudy
11:51 AM 72.0 °F 54.0 °F 53% 30.25 in 10.0 mi WSW 9.2 mph - N/A   Scattered Clouds
12:51 PM 75.0 °F 53.1 °F 46% 30.24 in 10.0 mi WSW 6.9 mph - N/A   Scattered Clouds
1:51 PM 75.0 °F 52.0 °F 44% 30.22 in 10.0 mi WSW 5.8 mph - N/A   Scattered Clouds
2:51 PM 75.2 °F 51.8 °F 44% 30.20 in 10.0 mi West 10.4 mph - N/A   Scattered Clouds
3:51 PM 75.9 °F 53.1 °F 45% 30.19 in 10.0 mi NW 3.5 mph - N/A   Mostly Cloudy
4:51 PM 75.0 °F 54.0 °F 48% 30.21 in 10.0 mi West 6.9 mph - N/A   Mostly Cloudy
5:51 PM 71.6 °F 53.6 °F 53% 30.22 in 10.0 mi West 4.6 mph - N/A   Mostly Cloudy
6:51 PM 68.0 °F 55.9 °F 65% 30.22 in 10.0 mi Calm Calm - N/A   Mostly Cloudy
7:51 PM 66.9 °F 57.9 °F 73% 30.18 in 10.0 mi SE 3.5 mph - N/A   Mostly Cloudy
8:51 PM 66.9 °F 55.0 °F 66% 30.16 in 10.0 mi SSE 6.9 mph - N/A   Mostly Cloudy
9:51 PM 66.9 °F 51.1 °F 57% 30.18 in 10.0 mi South 6.9 mph - N/A   Mostly Cloudy
10:51 PM 62.6 °F 51.8 °F 68% 30.20 in 10.0 mi Calm Calm - N/A   Mostly Cloudy
11:51 PM 63.0 °F 51.1 °F 65% 30.20 in 10.0 mi Calm Calm - N/A   Mostly Cloudy